Home   Weather   Boké   Past weeks

Flag for Guinea Past Weather in Boké, Guinea — Yesterday and Last 2 Weeks

Now
86 °F

Scattered clouds.


Feels Like: 102 °F
Forecast: N/A
Wind: 9 mph from West

Location: Conakry / Gbessia

Current Time: Dec 10, 2016 at 3:01:14 pm

Latest Report: Dec 10, 2016 at 2:00 pm


Visibility: 5 mi

Pressure: 29.83 "Hg

Humidity: 84%

Dew Point: 81 °F

Location of BokéLocation

Past Weather in Boké — Graph

°F

Boké Temperature Yesterday

Maximum temperature yesterday: 88 °F (at 11:00 am)
Minimum temperature yesterday: 77 °F (at 5:00 am)
Average temperature yesterday: 82 °F

High & Low Weather Summary for the Past Weeks

 TemperatureHumidityPressure
High91 °F (Nov 25, 2:00 pm)100% (Nov 26, 4:00 am)29.95 "Hg (Nov 26, 4:00 am)
Low75 °F (Nov 30, 7:00 am)55% (Nov 27, 2:00 pm)29.74 "Hg (Nov 25, 4:00 pm)
Average83 °F82%29.86 "Hg
* Reported Nov 25 1:00 pm — Dec 10 1:00 pm, Boké, Weather by CustomWeather, © 2016

Note: Actual official high and low records may vary slightly from our data, if they occured in-between our weather recording intervals... More about our weather records

Advertising

Boké Weather History for the Previous 24 Hours

Scroll right to see more
 ConditionsComfort  
Time TempWeatherWind HumidityBarometerVisibility
1:00 pm
Sat, Dec 10
86 °FScattered clouds.5 mph62%29.86 "Hg5 mi
12:00 pm88 °FScattered clouds.2 mph62%29.86 "Hg5 mi
11:00 am84 °FScattered clouds.7 mph66%29.86 "Hg5 mi
10:00 am84 °FFog.5 mph66%29.89 "Hg4 mi
9:00 am81 °FFog.5 mph84%29.89 "Hg4 mi
8:00 am79 °FFog.No wind89%29.86 "Hg2 mi
7:00 am79 °FScattered clouds.No wind89%29.86 "HgN/A
6:00 am79 °FPassing clouds.No wind89%29.83 "HgN/A
5:00 am79 °FPassing clouds.No wind89%29.83 "HgN/A
4:00 am79 °FPassing clouds.5 mph84%29.83 "HgN/A
3:00 am79 °FPassing clouds.No wind79%29.86 "HgN/A
2:00 am79 °FPassing clouds.2 mph89%29.86 "HgN/A
1:00 am81 °FPassing clouds.No wind84%29.89 "HgN/A
12:00 am81 °FPassing clouds.No wind84%29.89 "HgN/A
11:00 pm
Fri, Dec 9
81 °FPassing clouds.No wind89%29.89 "HgN/A
10:00 pm81 °FPassing clouds.No wind89%29.89 "HgN/A
9:00 pm82 °FPassing clouds.No wind84%29.89 "HgN/A
8:00 pm82 °FPassing clouds.No wind84%29.86 "HgN/A
7:00 pm82 °FPassing clouds.5 mph79%29.83 "HgN/A
6:00 pm84 °FScattered clouds.5 mph74%29.83 "HgN/A
5:00 pm86 °FScattered clouds.7 mph75%29.83 "HgN/A
4:00 pm86 °FScattered clouds.12 mph75%29.80 "HgN/A
Weather by CustomWeather, © 2016

See weather overviewHow to use our weather pages